TFL1925 EHRD-LGRP

Flight info

Callsign TFL1925
Flight time 3h 15m
Altitude 33000
Route LUNIX Z739 MISGO DCT DIXAT DCT DOJOH DCT DODEN DCT NEGIX DCT DINKU DCT BESNI DCT LATLO DCT OBEDI DCT VABEK UL603 OLOTA DCT DISOR DCT MES UN139 LURUS UL995 CODIC
Aircraft B738/M-SDE2E3FGHIRWXY/LB1

Departure

Time 2026-05-04 15:58
Airport Rotterdam The Hague Airport (EHRD)

Arrival

Time 2026-05-04 19:14
Airport Rhodes International Airport "Diagoras" (LGRP)
Time Latitude Longitude Altitude Speed Heading
2026-05-04 15:34 51.95040 4.43561 1 ft 0 kts 327°
2026-05-04 15:54 51.95052 4.43550 0 ft 5 kts 334°
2026-05-04 15:55 51.95087 4.43563 1 ft 5 kts 21°
2026-05-04 15:55 51.95130 4.43554 0 ft 11 kts 334°
2026-05-04 15:55 51.95203 4.43478 0 ft 12 kts 327°
2026-05-04 15:55 51.95232 4.43381 0 ft 11 kts 250°
2026-05-04 15:56 51.95195 4.43280 0 ft 10 kts 237°
2026-05-04 15:56 51.95158 4.43185 0 ft 10 kts 238°
2026-05-04 15:56 51.95128 4.43086 1 ft 10 kts 244°
2026-05-04 15:56 51.95113 4.42976 0 ft 11 kts 277°
2026-05-04 15:57 51.95171 4.42885 0 ft 12 kts 326°
2026-05-04 15:57 51.95240 4.42900 1 ft 6 kts 54°
2026-05-04 15:57 51.95243 4.42907 1 ft 1 kts 56°
2026-05-04 15:57 51.95398 4.43300 -1 ft 80 kts 57°
2026-05-04 15:58 51.95833 4.44386 -1 ft 147 kts 57°
2026-05-04 15:58 51.96447 4.45994 359 ft 175 kts 56°
2026-05-04 15:58 51.97064 4.47710 1214 ft 177 kts 57°
2026-05-04 15:58 51.97701 4.49471 1901 ft 187 kts 58°
2026-05-04 15:59 51.98396 4.51439 2161 ft 213 kts 59°
2026-05-04 15:59 51.99135 4.53659 2392 ft 232 kts 62°
2026-05-04 15:59 51.99860 4.56046 2825 ft 239 kts 68°
2026-05-04 15:59 52.00067 4.58704 2945 ft 240 kts 98°
2026-05-04 16:00 51.99785 4.61372 3007 ft 243 kts 98°
2026-05-04 16:00 51.99529 4.64174 3272 ft 261 kts 98°
2026-05-04 16:00 51.99263 4.67146 3940 ft 267 kts 98°
2026-05-04 16:00 51.98993 4.70124 4744 ft 270 kts 99°
2026-05-04 16:01 51.98717 4.73148 5476 ft 273 kts 99°
2026-05-04 16:01 51.98434 4.76225 6197 ft 277 kts 99°
2026-05-04 16:01 51.98147 4.79322 6929 ft 279 kts 99°
2026-05-04 16:01 51.97860 4.82404 7654 ft 281 kts 99°
2026-05-04 16:02 51.97564 4.85563 8311 ft 285 kts 99°
2026-05-04 16:02 51.97264 4.88752 9064 ft 286 kts 99°
2026-05-04 16:02 51.96652 4.95226 10328 ft 297 kts 99°
2026-05-04 16:03 51.96326 4.98652 10504 ft 318 kts 99°
2026-05-04 16:03 51.95975 5.02323 10677 ft 339 kts 99°
2026-05-04 16:03 51.95603 5.06199 10833 ft 358 kts 99°
2026-05-04 16:03 51.95209 5.10301 10983 ft 376 kts 99°
2026-05-04 16:04 51.94796 5.14587 11153 ft 392 kts 99°
2026-05-04 16:04 51.93934 5.23469 12149 ft 402 kts 99°
2026-05-04 16:04 51.93502 5.27901 12723 ft 405 kts 99°
2026-05-04 16:05 51.93057 5.32436 13253 ft 409 kts 99°
2026-05-04 16:05 51.92607 5.37004 13789 ft 413 kts 99°
2026-05-04 16:05 51.91692 5.46243 14778 ft 418 kts 99°
2026-05-04 16:06 51.91226 5.50915 15292 ft 420 kts 99°
2026-05-04 16:06 51.89967 5.63451 16574 ft 427 kts 99°
2026-05-04 16:07 51.89319 5.69846 17157 ft 432 kts 99°
2026-05-04 16:07 51.87839 5.84327 18470 ft 440 kts 99°
2026-05-04 16:08 51.87336 5.89217 18917 ft 441 kts 100°
2026-05-04 16:08 51.85472 6.03868 20034 ft 447 kts 113°
2026-05-04 16:09 51.82221 6.12389 20767 ft 447 kts 133°
2026-05-04 16:09 51.78000 6.19806 21468 ft 451 kts 134°
2026-05-04 16:10 51.73812 6.27426 22128 ft 455 kts 133°
2026-05-04 16:11 51.67525 6.38912 23210 ft 460 kts 135°
2026-05-04 16:11 51.65391 6.42791 23491 ft 464 kts 135°
2026-05-04 16:12 51.58943 6.54466 24316 ft 467 kts 135°
2026-05-04 16:12 51.52426 6.66217 25009 ft 471 kts 135°
2026-05-04 16:13 51.48042 6.74097 25476 ft 473 kts 135°
2026-05-04 16:13 51.43636 6.81994 25930 ft 475 kts 135°
2026-05-04 16:14 51.39284 6.89891 26632 ft 471 kts 133°
2026-05-04 16:14 51.35235 6.98063 27041 ft 472 kts 131°
2026-05-04 16:15 51.29156 7.10405 27799 ft 469 kts 132°
2026-05-04 16:16 51.24846 7.18143 28183 ft 464 kts 142°
2026-05-04 16:16 51.17480 7.28161 28849 ft 462 kts 143°
2026-05-04 16:17 51.12610 7.34813 29362 ft 460 kts 143°
2026-05-04 16:18 51.05386 7.44783 30061 ft 460 kts 143°
2026-05-04 16:18 51.02974 7.48109 30292 ft 458 kts 143°
2026-05-04 16:19 50.95755 7.58030 30869 ft 457 kts 143°
2026-05-04 16:19 50.90905 7.64666 31106 ft 460 kts 143°
2026-05-04 16:20 50.83663 7.74549 31773 ft 457 kts 144°
2026-05-04 16:20 50.78962 7.81371 32133 ft 459 kts 141°
2026-05-04 16:21 50.72075 7.91759 32707 ft 457 kts 141°
2026-05-04 16:22 50.67442 7.98628 33015 ft 458 kts 142°
2026-05-04 16:23 50.54307 8.20688 32988 ft 463 kts 132°
2026-05-04 16:25 50.42371 8.44298 32985 ft 460 kts 134°
2026-05-04 16:26 50.27517 8.70499 32974 ft 460 kts 138°
2026-05-04 16:28 50.16546 8.88662 32968 ft 462 kts 138°
2026-05-04 16:29 50.01079 9.14191 32967 ft 462 kts 138°
2026-05-04 16:31 49.90048 9.32234 32993 ft 462 kts 138°
2026-05-04 16:32 49.76709 9.53881 32962 ft 463 kts 138°
2026-05-04 16:33 49.67800 9.68236 32985 ft 464 kts 138°
2026-05-04 16:34 49.61069 9.79031 32988 ft 465 kts 138°
2026-05-04 16:35 49.47569 10.00542 32993 ft 465 kts 137°
2026-05-04 16:36 49.41572 10.10040 32967 ft 465 kts 137°
2026-05-04 16:37 49.34071 10.21871 32972 ft 465 kts 138°
2026-05-04 16:38 49.25805 10.34849 32978 ft 463 kts 137°
2026-05-04 16:39 49.14338 10.52126 32988 ft 462 kts 139°
2026-05-04 16:40 49.05102 10.65761 32972 ft 462 kts 139°
2026-05-04 16:41 48.93607 10.82692 32970 ft 460 kts 139°
2026-05-04 16:43 48.82079 10.99553 32925 ft 460 kts 139°
2026-05-04 16:43 48.75160 11.09619 32948 ft 459 kts 139°
2026-05-04 16:45 48.61440 11.29895 32932 ft 461 kts 135°
2026-05-04 16:46 48.50704 11.47928 32935 ft 462 kts 135°
2026-05-04 16:47 48.42038 11.62244 32938 ft 462 kts 135°
2026-05-04 16:48 48.33383 11.76440 32940 ft 461 kts 135°
2026-05-04 16:49 48.24682 11.90642 32936 ft 462 kts 135°
2026-05-04 16:50 48.15965 12.04791 32903 ft 462 kts 135°
2026-05-04 16:51 48.09437 12.15339 32916 ft 462 kts 135°
2026-05-04 16:52 48.00668 12.29439 32913 ft 463 kts 136°
2026-05-04 16:53 47.94104 12.39948 32903 ft 463 kts 136°
2026-05-04 16:54 47.85320 12.53942 32906 ft 462 kts 136°
2026-05-04 16:55 47.72140 12.74807 32894 ft 461 kts 136°
2026-05-04 16:56 47.60919 12.91835 32908 ft 462 kts 138°
2026-05-04 16:57 47.54095 13.01829 32915 ft 462 kts 137°
2026-05-04 16:58 47.44959 13.15245 32944 ft 462 kts 137°
2026-05-04 17:00 47.31364 13.35442 32963 ft 465 kts 131°
2026-05-04 17:01 47.21608 13.54400 32999 ft 466 kts 129°
2026-05-04 17:02 47.13696 13.69559 33005 ft 468 kts 130°
2026-05-04 17:03 47.07714 13.80898 32998 ft 467 kts 130°
2026-05-04 17:03 47.01742 13.92181 33018 ft 466 kts 130°
2026-05-04 17:04 46.93757 14.07198 32992 ft 467 kts 130°
2026-05-04 17:05 46.85764 14.22149 33000 ft 468 kts 130°
2026-05-04 17:06 46.79724 14.33392 33003 ft 468 kts 129°
2026-05-04 17:07 46.74358 14.43344 32986 ft 469 kts 130°
2026-05-04 17:07 46.69646 14.52050 32997 ft 471 kts 129°
2026-05-04 17:08 46.63537 14.63303 32998 ft 473 kts 130°
2026-05-04 17:09 46.59445 14.70808 33001 ft 474 kts 130°
2026-05-04 17:09 46.55336 14.78330 33017 ft 475 kts 130°
2026-05-04 17:10 46.45040 14.97092 33023 ft 477 kts 129°
2026-05-04 17:11 46.40897 15.04604 33015 ft 477 kts 129°
2026-05-04 17:12 46.34654 15.15884 33012 ft 479 kts 130°
2026-05-04 17:13 46.24234 15.34612 32998 ft 478 kts 129°
2026-05-04 17:14 46.15863 15.49566 33007 ft 478 kts 129°
2026-05-04 17:15 46.09578 15.60740 33010 ft 478 kts 129°
2026-05-04 17:16 46.01215 15.75540 33017 ft 477 kts 130°
2026-05-04 17:17 45.92810 15.90336 33018 ft 477 kts 130°
2026-05-04 17:18 45.84367 16.05121 33003 ft 481 kts 129°
2026-05-04 17:19 45.75864 16.19931 32991 ft 482 kts 130°
2026-05-04 17:20 45.67331 16.34717 33011 ft 481 kts 130°
2026-05-04 17:20 45.60920 16.45774 33013 ft 481 kts 130°
2026-05-04 17:21 45.52351 16.60483 33022 ft 481 kts 129°
2026-05-04 17:22 45.48066 16.67811 33015 ft 481 kts 129°
2026-05-04 17:23 45.39483 16.82431 33017 ft 480 kts 130°
2026-05-04 17:24 45.33071 16.93303 33014 ft 480 kts 129°
2026-05-04 17:25 45.25193 17.06604 33020 ft 480 kts 130°
2026-05-04 17:26 45.16569 17.21092 33027 ft 481 kts 129°
2026-05-04 17:27 45.05748 17.39165 33022 ft 481 kts 130°
2026-05-04 17:28 44.97101 17.53524 33023 ft 481 kts 129°
2026-05-04 17:29 44.84024 17.75102 33030 ft 482 kts 130°
2026-05-04 17:31 44.73102 17.92999 33027 ft 483 kts 129°
2026-05-04 17:32 44.62109 18.10899 33042 ft 484 kts 129°
2026-05-04 17:33 44.53309 18.25146 33047 ft 484 kts 129°
2026-05-04 17:34 44.44463 18.39395 33040 ft 484 kts 129°
2026-05-04 17:35 44.33409 18.57102 33045 ft 484 kts 129°
2026-05-04 17:36 44.28975 18.64173 33062 ft 484 kts 129°
2026-05-04 17:36 44.24529 18.71246 33063 ft 484 kts 130°
2026-05-04 17:37 44.20072 18.78319 33050 ft 484 kts 130°
2026-05-04 17:37 44.15641 18.85332 33052 ft 485 kts 130°
2026-05-04 17:38 44.11178 18.92380 33067 ft 485 kts 130°
2026-05-04 17:38 44.06715 18.99410 33061 ft 485 kts 130°
2026-05-04 17:39 44.00027 19.09911 33062 ft 485 kts 130°
2026-05-04 17:39 43.95549 19.16922 33080 ft 485 kts 129°
2026-05-04 17:40 43.91059 19.23933 33066 ft 486 kts 130°
2026-05-04 17:40 43.86568 19.30928 33074 ft 485 kts 130°
2026-05-04 17:41 43.82069 19.37919 33080 ft 485 kts 130°
2026-05-04 17:41 43.77588 19.44866 33073 ft 486 kts 129°
2026-05-04 17:42 43.73071 19.51850 33068 ft 486 kts 129°
2026-05-04 17:42 43.68556 19.58816 33082 ft 486 kts 129°
2026-05-04 17:43 43.64034 19.65775 33070 ft 487 kts 130°
2026-05-04 17:43 43.59503 19.72730 33084 ft 487 kts 129°
2026-05-04 17:44 43.54968 19.79674 33078 ft 487 kts 129°
2026-05-04 17:44 43.50458 19.86562 33087 ft 487 kts 129°
2026-05-04 17:45 43.45921 19.93478 33084 ft 486 kts 129°
2026-05-04 17:45 43.41376 20.00388 33099 ft 486 kts 129°
2026-05-04 17:46 43.36836 20.07273 33088 ft 486 kts 129°
2026-05-04 17:46 43.32282 20.14163 33098 ft 487 kts 129°
2026-05-04 17:47 43.27718 20.21052 33112 ft 487 kts 129°
2026-05-04 17:47 43.23185 20.27878 33110 ft 487 kts 129°
2026-05-04 17:48 43.18613 20.34746 33092 ft 486 kts 129°
2026-05-04 17:48 43.14060 20.41568 33121 ft 485 kts 129°
2026-05-04 17:49 43.09484 20.48413 33126 ft 489 kts 129°
2026-05-04 17:49 43.04870 20.55297 33112 ft 492 kts 129°
2026-05-04 17:50 43.00223 20.62202 33112 ft 493 kts 130°
2026-05-04 17:50 42.95338 20.68812 33111 ft 495 kts 134°
2026-05-04 17:51 42.90357 20.75201 33101 ft 494 kts 134°
2026-05-04 17:51 42.85367 20.81620 33132 ft 492 kts 134°
2026-05-04 17:52 42.80415 20.88042 33118 ft 490 kts 134°
2026-05-04 17:52 42.75481 20.94452 33124 ft 489 kts 134°
2026-05-04 17:53 42.70559 21.00833 33121 ft 488 kts 134°
2026-05-04 17:53 42.65643 21.07187 33131 ft 487 kts 134°
2026-05-04 17:54 42.60764 21.13479 33125 ft 487 kts 134°
2026-05-04 17:54 42.55853 21.19796 33110 ft 486 kts 134°
2026-05-04 17:55 42.50942 21.26099 33125 ft 486 kts 134°
2026-05-04 17:55 42.46026 21.32395 33118 ft 486 kts 134°
2026-05-04 17:56 42.41118 21.38666 33104 ft 485 kts 134°
2026-05-04 17:56 42.36199 21.44937 33107 ft 485 kts 134°
2026-05-04 17:57 42.31278 21.51197 33103 ft 486 kts 134°
2026-05-04 17:57 42.26340 21.57467 33102 ft 487 kts 134°
2026-05-04 17:58 42.21406 21.63683 33095 ft 488 kts 135°
2026-05-04 17:58 42.16305 21.69740 33086 ft 489 kts 136°
2026-05-04 17:59 42.11157 21.75736 33085 ft 489 kts 136°
2026-05-04 18:00 42.03452 21.84760 33091 ft 488 kts 137°
2026-05-04 18:00 41.98349 21.90753 33096 ft 485 kts 137°
2026-05-04 18:01 41.93268 21.96709 33094 ft 484 kts 137°
2026-05-04 18:01 41.88228 22.02602 33091 ft 483 kts 137°
2026-05-04 18:02 41.80633 22.11457 33069 ft 482 kts 137°
2026-05-04 18:02 41.75577 22.17336 33081 ft 480 kts 137°
2026-05-04 18:03 41.70533 22.23188 33078 ft 478 kts 137°
2026-05-04 18:03 41.65502 22.29012 33073 ft 477 kts 137°
2026-05-04 18:04 41.60483 22.34811 33070 ft 476 kts 137°
2026-05-04 18:05 41.53002 22.43430 33080 ft 475 kts 137°
2026-05-04 18:05 41.48005 22.49172 33091 ft 473 kts 138°
2026-05-04 18:06 41.40554 22.57711 33071 ft 469 kts 138°
2026-05-04 18:06 41.35605 22.63370 33070 ft 468 kts 138°
2026-05-04 18:07 41.30675 22.68995 33071 ft 466 kts 138°
2026-05-04 18:07 41.25753 22.74601 33072 ft 466 kts 138°
2026-05-04 18:08 41.20809 22.80166 33090 ft 466 kts 139°
2026-05-04 18:08 41.15867 22.85641 33073 ft 465 kts 139°
2026-05-04 18:09 41.05942 22.96611 33069 ft 463 kts 139°
2026-05-04 18:10 41.00990 23.02082 33078 ft 463 kts 139°
2026-05-04 18:10 40.96035 23.07545 33074 ft 464 kts 139°
2026-05-04 18:11 40.91070 23.13007 33093 ft 463 kts 139°
2026-05-04 18:11 40.86130 23.18432 33070 ft 461 kts 140°
2026-05-04 18:12 40.81239 23.23791 33074 ft 459 kts 139°
2026-05-04 18:12 40.76320 23.29171 33081 ft 458 kts 139°
2026-05-04 18:13 40.71410 23.34530 33075 ft 458 kts 140°
2026-05-04 18:14 40.64868 23.41656 33081 ft 458 kts 139°
2026-05-04 18:14 40.59955 23.46994 33081 ft 459 kts 140°
2026-05-04 18:15 40.50086 23.57684 33084 ft 461 kts 139°
2026-05-04 18:16 40.45126 23.63043 33076 ft 462 kts 139°
2026-05-04 18:16 40.40194 23.68359 33072 ft 462 kts 140°
2026-05-04 18:17 40.32735 23.76378 33070 ft 462 kts 140°
2026-05-04 18:18 40.25254 23.84399 33074 ft 464 kts 140°
2026-05-04 18:18 40.20247 23.89755 33073 ft 465 kts 140°
2026-05-04 18:19 40.12748 23.97755 33075 ft 466 kts 140°
2026-05-04 18:19 40.07723 24.03104 33073 ft 466 kts 140°
2026-05-04 18:20 40.02688 24.08451 33085 ft 467 kts 140°
2026-05-04 18:20 39.97643 24.13797 33084 ft 468 kts 139°
2026-05-04 18:21 39.92573 24.19164 33080 ft 469 kts 140°
2026-05-04 18:21 39.87531 24.24488 33079 ft 469 kts 140°
2026-05-04 18:22 39.82459 24.29833 33078 ft 469 kts 140°
2026-05-04 18:22 39.77379 24.35176 33081 ft 469 kts 140°
2026-05-04 18:23 39.72293 24.40516 33083 ft 469 kts 140°
2026-05-04 18:23 39.67203 24.45848 33084 ft 470 kts 140°
2026-05-04 18:24 39.62148 24.51134 33088 ft 470 kts 140°
2026-05-04 18:24 39.57055 24.56449 33076 ft 470 kts 140°
2026-05-04 18:25 39.51962 24.61753 33088 ft 470 kts 140°
2026-05-04 18:25 39.46860 24.67058 33093 ft 470 kts 140°
2026-05-04 18:26 39.41788 24.72321 33089 ft 470 kts 140°
2026-05-04 18:26 39.36688 24.77602 33092 ft 470 kts 140°
2026-05-04 18:27 39.31576 24.82885 33095 ft 470 kts 140°
2026-05-04 18:27 39.26469 24.88154 33093 ft 470 kts 140°
2026-05-04 18:28 39.21364 24.93411 33097 ft 470 kts 140°
2026-05-04 18:28 39.16252 24.98664 33091 ft 470 kts 140°
2026-05-04 18:29 39.11132 25.03916 33096 ft 471 kts 140°
2026-05-04 18:29 39.05993 25.09177 33100 ft 471 kts 140°
2026-05-04 18:30 38.98326 25.17006 33100 ft 471 kts 140°
2026-05-04 18:31 38.93188 25.22242 33089 ft 472 kts 140°
2026-05-04 18:31 38.88085 25.27431 33099 ft 474 kts 140°
2026-05-04 18:32 38.83980 25.31599 33102 ft 474 kts 140°
2026-05-04 18:32 38.78817 25.36831 33103 ft 471 kts 140°
2026-05-04 18:33 38.73682 25.42025 33095 ft 470 kts 140°
2026-05-04 18:33 38.68557 25.47199 33106 ft 469 kts 140°
2026-05-04 18:34 38.63431 25.52366 33106 ft 471 kts 140°
2026-05-04 18:34 38.58282 25.57546 33103 ft 476 kts 140°
2026-05-04 18:35 38.53075 25.62774 33102 ft 476 kts 140°
2026-05-04 18:35 38.47882 25.67977 33106 ft 473 kts 140°
2026-05-04 18:36 38.42718 25.73143 33097 ft 471 kts 140°
2026-05-04 18:36 38.37540 25.78314 33108 ft 474 kts 140°
2026-05-04 18:37 38.33948 25.81896 33105 ft 475 kts 140°
2026-05-04 18:37 38.30057 25.85771 33100 ft 475 kts 140°
2026-05-04 18:38 38.24693 25.90661 33092 ft 476 kts 149°
2026-05-04 18:38 38.18542 25.93801 33105 ft 478 kts 159°
2026-05-04 18:39 38.12286 25.96604 33099 ft 481 kts 156°
2026-05-04 18:39 38.05955 25.99614 33108 ft 484 kts 158°
2026-05-04 18:40 37.99572 26.02359 33105 ft 483 kts 158°
2026-05-04 18:40 37.93277 26.05126 33081 ft 482 kts 158°
2026-05-04 18:41 37.86940 26.07973 33092 ft 485 kts 158°
2026-05-04 18:41 37.80537 26.10846 33115 ft 491 kts 158°
2026-05-04 18:42 37.74065 26.13753 33101 ft 494 kts 158°
2026-05-04 18:42 37.67584 26.16696 33112 ft 494 kts 158°
2026-05-04 18:43 37.61161 26.19609 33103 ft 493 kts 158°
2026-05-04 18:43 37.54705 26.22516 33089 ft 491 kts 158°
2026-05-04 18:44 37.48271 26.25401 33081 ft 489 kts 158°
2026-05-04 18:44 37.41853 26.28274 33116 ft 489 kts 158°
2026-05-04 18:44 37.38639 26.29712 32839 ft 494 kts 159°
2026-05-04 18:45 37.35383 26.31161 32310 ft 497 kts 158°
2026-05-04 18:45 37.32131 26.32604 31658 ft 493 kts 158°
2026-05-04 18:45 37.28903 26.34036 31035 ft 491 kts 158°
2026-05-04 18:45 37.25692 26.35461 30430 ft 488 kts 158°
2026-05-04 18:46 37.22501 26.36881 29769 ft 485 kts 157°
2026-05-04 18:46 37.19330 26.38294 29070 ft 482 kts 158°
2026-05-04 18:46 37.16171 26.39701 28387 ft 479 kts 158°
2026-05-04 18:46 37.13037 26.41093 27725 ft 477 kts 159°
2026-05-04 18:47 37.09958 26.42455 27085 ft 474 kts 158°
2026-05-04 18:47 37.06855 26.43824 26459 ft 471 kts 159°
2026-05-04 18:47 37.03767 26.45182 25843 ft 469 kts 159°
2026-05-04 18:47 37.00693 26.46531 25234 ft 467 kts 159°
2026-05-04 18:48 36.97626 26.47878 24637 ft 465 kts 159°
2026-05-04 18:48 36.94581 26.49219 24069 ft 463 kts 159°
2026-05-04 18:48 36.91620 26.50758 23431 ft 459 kts 147°
2026-05-04 18:48 36.89133 26.53205 22760 ft 452 kts 130°
2026-05-04 18:49 36.87254 26.56294 22100 ft 443 kts 115°
2026-05-04 18:49 36.85999 26.59770 21484 ft 437 kts 107°
2026-05-04 18:49 36.84887 26.63296 20836 ft 435 kts 107°
2026-05-04 18:49 36.83739 26.66790 20208 ft 434 kts 108°
2026-05-04 18:50 36.82558 26.70265 19591 ft 433 kts 109°
2026-05-04 18:50 36.81372 26.73719 18988 ft 432 kts 109°
2026-05-04 18:50 36.80207 26.77110 18405 ft 430 kts 109°
2026-05-04 18:50 36.79014 26.80576 17728 ft 428 kts 109°
2026-05-04 18:51 36.77839 26.83982 17066 ft 426 kts 109°
2026-05-04 18:51 36.76683 26.87327 16454 ft 424 kts 109°
2026-05-04 18:51 36.75515 26.90706 15819 ft 422 kts 109°
2026-05-04 18:51 36.74354 26.94059 15204 ft 420 kts 110°
2026-05-04 18:52 36.73198 26.97392 14594 ft 418 kts 110°
2026-05-04 18:52 36.72049 27.00703 13991 ft 415 kts 110°
2026-05-04 18:52 36.70906 27.03992 13343 ft 412 kts 110°
2026-05-04 18:52 36.69769 27.07264 12685 ft 409 kts 110°
2026-05-04 18:53 36.68642 27.10506 12035 ft 407 kts 110°
2026-05-04 18:53 36.67522 27.13729 11438 ft 404 kts 110°
2026-05-04 18:53 36.66428 27.16869 11065 ft 395 kts 110°
2026-05-04 18:53 36.65346 27.19975 10716 ft 385 kts 110°
2026-05-04 18:54 36.64305 27.22960 10392 ft 367 kts 110°
2026-05-04 18:54 36.63309 27.25815 10073 ft 351 kts 110°
2026-05-04 18:54 36.62357 27.28548 9760 ft 337 kts 109°
2026-05-04 18:54 36.61440 27.31176 9471 ft 324 kts 109°
2026-05-04 18:55 36.60555 27.33708 9195 ft 312 kts 109°
2026-05-04 18:55 36.58858 27.38557 8724 ft 304 kts 109°
2026-05-04 18:55 36.58014 27.40965 8494 ft 303 kts 109°
2026-05-04 18:56 36.57166 27.43376 8265 ft 302 kts 109°
2026-05-04 18:56 36.56333 27.45736 8052 ft 301 kts 109°
2026-05-04 18:56 36.55491 27.48121 7829 ft 300 kts 109°
2026-05-04 18:56 36.54656 27.50482 7589 ft 296 kts 108°
2026-05-04 18:57 36.53829 27.52815 7362 ft 292 kts 108°
2026-05-04 18:57 36.53015 27.55113 7149 ft 289 kts 108°
2026-05-04 18:57 36.52204 27.57405 7082 ft 292 kts 108°
2026-05-04 18:57 36.51378 27.59731 7041 ft 293 kts 109°
2026-05-04 18:58 36.50778 27.61415 7027 ft 291 kts 109°
2026-05-04 18:58 36.49963 27.63701 7026 ft 288 kts 108°
2026-05-04 18:58 36.49152 27.65983 7031 ft 289 kts 108°
2026-05-04 18:58 36.48340 27.68271 7036 ft 290 kts 108°
2026-05-04 18:59 36.47529 27.70561 7024 ft 290 kts 109°
2026-05-04 18:59 36.46778 27.72729 7018 ft 289 kts 105°
2026-05-04 18:59 36.46282 27.75087 7026 ft 284 kts 93°
2026-05-04 18:59 36.45973 27.77507 7017 ft 283 kts 93°
2026-05-04 19:00 36.45742 27.79329 7008 ft 281 kts 93°
2026-05-04 19:00 36.45490 27.81291 6861 ft 279 kts 94°
2026-05-04 19:00 36.45176 27.83657 6699 ft 275 kts 93°
2026-05-04 19:00 36.44862 27.85977 6526 ft 270 kts 94°
2026-05-04 19:01 36.44553 27.88260 6373 ft 266 kts 93°
2026-05-04 19:01 36.44246 27.90520 6198 ft 265 kts 93°
2026-05-04 19:01 36.43939 27.92778 6076 ft 266 kts 93°
2026-05-04 19:01 36.43635 27.95037 6013 ft 262 kts 92°
2026-05-04 19:02 36.43342 27.97212 5859 ft 255 kts 93°
2026-05-04 19:02 36.43053 27.99355 5718 ft 248 kts 92°
2026-05-04 19:02 36.42769 28.01444 5580 ft 243 kts 92°
2026-05-04 19:02 36.42490 28.03499 5445 ft 240 kts 92°
2026-05-04 19:03 36.42211 28.05547 5320 ft 241 kts 92°
2026-05-04 19:03 36.41929 28.07599 5213 ft 241 kts 92°
2026-05-04 19:03 36.41715 28.09144 5113 ft 242 kts 92°
2026-05-04 19:03 36.41431 28.11199 5001 ft 242 kts 92°
2026-05-04 19:04 36.41148 28.13259 4872 ft 242 kts 92°
2026-05-04 19:04 36.40865 28.15328 4744 ft 244 kts 92°
2026-05-04 19:04 36.40677 28.16705 4659 ft 244 kts 92°
2026-05-04 19:04 36.40394 28.18784 4535 ft 243 kts 92°
2026-05-04 19:05 36.40109 28.20824 4371 ft 237 kts 92°
2026-05-04 19:05 36.39836 28.22786 4230 ft 230 kts 92°
2026-05-04 19:05 36.39565 28.24738 4079 ft 224 kts 92°
2026-05-04 19:05 36.39306 28.26621 3917 ft 220 kts 92°
2026-05-04 19:06 36.39047 28.28518 3770 ft 225 kts 92°
2026-05-04 19:06 36.38783 28.30440 3691 ft 226 kts 92°
2026-05-04 19:06 36.38521 28.32339 3702 ft 226 kts 91°
2026-05-04 19:06 36.38424 28.34274 3599 ft 226 kts 74°
2026-05-04 19:07 36.38942 28.36078 3326 ft 220 kts 50°
2026-05-04 19:07 36.39559 28.37050 3172 ft 215 kts 36°
2026-05-04 19:07 36.40720 28.38164 2882 ft 209 kts 22°
2026-05-04 19:07 36.42063 28.38775 2606 ft 204 kts
2026-05-04 19:08 36.43475 28.38848 2328 ft 202 kts 349°
2026-05-04 19:08 36.44806 28.38380 2079 ft 201 kts 334°
2026-05-04 19:08 36.45954 28.37439 2011 ft 195 kts 319°
2026-05-04 19:08 36.46812 28.36144 1974 ft 195 kts 301°
2026-05-04 19:09 36.47332 28.34579 1981 ft 199 kts 286°
2026-05-04 19:09 36.47437 28.32846 1971 ft 206 kts 269°
2026-05-04 19:09 36.47115 28.31082 1989 ft 215 kts 252°
2026-05-04 19:09 36.46573 28.29342 1983 ft 215 kts 254°
2026-05-04 19:10 36.46069 28.27643 1975 ft 202 kts 253°
2026-05-04 19:10 36.45605 28.26082 1976 ft 184 kts 254°
2026-05-04 19:10 36.45283 28.24999 1970 ft 177 kts 254°
2026-05-04 19:10 36.44869 28.23601 1977 ft 170 kts 255°
2026-05-04 19:11 36.44468 28.22234 1989 ft 166 kts 255°
2026-05-04 19:11 36.44077 28.20875 1796 ft 166 kts 255°
2026-05-04 19:11 36.43718 28.19553 1607 ft 156 kts 261°
2026-05-04 19:11 36.43417 28.18286 1411 ft 155 kts 258°
2026-05-04 19:12 36.43016 28.17024 1179 ft 157 kts 255°
2026-05-04 19:12 36.42278 28.14500 774 ft 154 kts 256°
2026-05-04 19:12 36.41882 28.13269 555 ft 151 kts 256°
2026-05-04 19:13 36.41536 28.12065 362 ft 145 kts 255°
2026-05-04 19:13 36.41209 28.10943 158 ft 132 kts 256°
2026-05-04 19:13 36.40904 28.09890 35 ft 127 kts 258°
2026-05-04 19:13 36.40668 28.09052 29 ft 102 kts 250°
2026-05-04 19:14 36.40469 28.08381 27 ft 43 kts 249°
2026-05-04 19:14 36.40377 28.08102 27 ft 25 kts 237°
2026-05-04 19:14 36.40302 28.07984 27 ft 14 kts 224°